Date String (YYYY-MM-DD hh:mm:ss) UTC,Instrument flags,Ambient pressure (hPa),Sample flow (lpm),Bypass flow (lpm),Sample temperature (°C),Ambient temperature (°C),ASC tube jacket temperature (°C),LED temperature (°C),Box temperature (°C),Sample RH (%),Span deviation,Mass concentration (μg/m³),Mass concentration (μg/m³),Mass concentration (μg/m³)
DateTimeUTC,F1_M11,P_M11,Q1_M11,Q2_M11,T1_M11,T2_M11,T3_M11,T4_M11,T5_M11,U1_M11,ZSPAN_M11,X2_M11,X0_M11,X1_M11
2023-05-04 17:00:00,,0825.1,5.01,0.00,27.7,26.3,00.0,36.1,29.4,17.5,0000.0,0004.09,0009.67,0002.88
2023-05-04 17:01:00,,0824.9,5.00,0.00,27.8,26.3,00.0,36.1,29.4,18.3,0000.0,0004.09,0009.48,0002.87
2023-05-04 17:02:00,,0824.9,4.99,0.00,27.8,26.3,00.0,36.1,29.4,18.3,0000.0,0004.07,0009.40,0002.87
2023-05-04 17:03:00,,0824.9,5.02,0.00,27.8,26.3,00.0,36.1,29.4,17.6,0000.0,0004.05,0009.36,0002.87
2023-05-04 17:04:00,,0825.0,5.00,0.00,27.8,26.3,00.0,36.1,29.4,18.3,0000.0,0004.02,0009.27,0002.87
2023-05-04 17:05:00,,0824.9,4.98,0.00,27.8,26.3,00.0,36.1,29.4,18.3,0000.0,0003.98,0009.10,0002.86
2023-05-04 17:06:00,,0824.9,5.00,0.00,27.8,26.4,00.0,36.1,29.4,17.6,0000.0,0003.94,0009.11,0002.85
2023-05-04 17:07:00,,0824.9,5.00,0.00,27.8,26.4,00.0,36.1,29.4,18.0,0000.0,0003.96,0010.38,0002.84
2023-05-04 17:08:00,,0824.9,5.00,0.00,27.8,26.4,00.0,36.1,29.4,18.1,0000.0,0003.94,0010.23,0002.84
2023-05-04 17:09:00,,0824.9,5.00,0.00,27.8,26.4,00.0,36.1,29.4,17.6,0000.0,0003.93,0009.88,0002.84
2023-05-04 17:10:00,,0824.8,4.99,0.00,27.8,26.4,00.0,36.2,29.4,18.4,0000.0,0003.93,0009.80,0002.84
2023-05-04 17:11:00,,0824.9,4.99,0.00,27.8,26.4,00.0,36.2,29.4,18.4,0000.0,0004.04,0010.02,0002.85
2023-05-04 17:12:00,,0824.8,4.99,0.00,27.8,26.4,00.0,36.2,29.4,17.9,0000.0,0004.09,0010.17,0002.88
2023-05-04 17:13:00,,0824.8,4.99,0.00,27.8,26.4,00.0,36.2,29.4,17.6,0000.0,0004.10,0010.40,0002.88
2023-05-04 17:14:00,,0824.7,5.01,0.00,27.8,26.4,00.0,36.2,29.4,17.6,0000.0,0004.13,0010.57,0002.90
2023-05-04 17:15:00,,0824.8,5.00,0.00,27.8,26.4,00.0,36.2,29.4,16.6,0000.0,0004.14,0010.58,0002.89
2023-05-04 17:16:00,,0824.8,5.01,0.00,27.8,26.4,00.0,36.2,29.4,17.6,0000.0,0004.17,0010.68,0002.90
2023-05-04 17:17:00,,0824.7,5.01,0.00,27.9,26.4,00.0,36.2,29.4,17.3,0000.0,0004.19,0010.57,0002.89
2023-05-04 17:18:00,,0824.7,4.98,0.00,27.9,26.4,00.0,36.2,29.4,17.4,0000.0,0004.17,0009.40,0002.88
2023-05-04 17:19:00,,0824.7,4.99,0.00,27.9,26.4,00.0,36.2,29.5,17.3,0000.0,0004.16,0008.82,0002.88
2023-05-04 17:20:00,,0824.7,5.01,0.00,27.9,26.5,00.0,36.2,29.5,16.3,0000.0,0004.21,0009.12,0002.89
2023-05-04 17:21:00,,0824.6,5.01,0.00,27.9,26.5,00.0,36.2,29.5,16.8,0000.0,0004.24,0009.34,0002.89
2023-05-04 17:22:00,,0824.5,5.01,0.00,27.9,26.5,00.0,36.2,29.5,16.9,0000.0,0004.21,0009.43,0002.88
2023-05-04 17:23:00,,0824.4,4.99,0.00,27.9,26.5,00.0,36.2,29.5,15.4,0000.0,0004.14,0009.39,0002.84
2023-05-04 17:24:00,,0824.4,4.99,0.00,27.9,26.6,00.0,36.2,29.5,15.5,0000.0,0004.14,0009.43,0002.83
2023-05-04 17:25:00,,0824.4,4.99,0.00,27.9,26.6,00.0,36.3,29.5,16.1,0000.0,0004.14,0009.54,0002.79
2023-05-04 17:26:00,,0824.5,5.00,0.00,27.9,26.6,00.0,36.3,29.5,16.0,0000.0,0004.17,0010.03,0002.78
2023-05-04 17:27:00,,0824.6,5.00,0.00,28.0,26.6,00.0,36.3,29.5,15.0,0000.0,0004.37,0012.06,0002.78
2023-05-04 17:28:00,,0824.6,5.01,0.00,28.0,26.6,00.0,36.3,29.6,14.5,0000.0,0004.48,0014.02,0002.79
2023-05-04 17:29:00,,0824.5,5.01,0.00,28.0,26.6,00.0,36.3,29.6,14.7,0000.0,0004.52,0014.22,0002.78
2023-05-04 17:30:00,,0824.5,5.01,0.00,28.0,26.6,00.0,36.3,29.6,15.2,0000.0,0004.52,0014.28,0002.76
2023-05-04 17:31:00,,0824.5,5.00,0.00,28.0,26.6,00.0,36.3,29.6,15.4,0000.0,0004.50,0014.18,0002.74
2023-05-04 17:32:00,,0824.6,4.99,0.00,28.0,26.6,00.0,36.3,29.7,16.1,0000.0,0004.53,0014.20,0002.71
2023-05-04 17:33:00,,0824.6,4.99,0.00,28.0,26.6,00.0,36.3,29.7,16.3,0000.0,0004.50,0014.03,0002.66
2023-05-04 17:34:00,,0824.7,5.00,0.00,28.0,26.6,00.0,36.3,29.7,15.3,0000.0,0004.50,0013.91,0002.65
2023-05-04 17:35:00,,0824.7,5.02,0.00,28.0,26.6,00.0,36.3,29.7,15.7,0000.0,0004.48,0013.77,0002.64
2023-05-04 17:36:00,,0824.7,5.01,0.00,28.0,26.6,00.0,36.3,29.6,15.6,0000.0,0004.46,0013.48,0002.64
2023-05-04 17:37:00,,0824.7,4.98,0.00,28.0,26.6,00.0,36.4,29.6,15.6,0000.0,0004.44,0013.17,0002.63
2023-05-04 17:38:00,,0824.7,5.00,0.00,28.1,26.6,00.0,36.4,29.7,15.8,0000.0,0004.25,0011.61,0002.59
2023-05-04 17:39:00,,0824.7,5.01,0.00,28.1,26.6,00.0,36.4,29.7,15.8,0000.0,0004.09,0009.44,0002.54
2023-05-04 17:40:00,,0824.7,5.01,0.00,28.1,26.6,00.0,36.4,29.8,15.5,0000.0,0004.03,0009.27,0002.52
2023-05-04 17:41:00,,0824.7,5.00,0.00,28.1,26.6,00.0,36.4,29.7,15.7,0000.0,0004.01,0009.92,0002.52
2023-05-04 17:42:00,,0824.7,4.99,0.00,28.1,26.6,00.0,36.4,29.7,15.1,0000.0,0003.99,0009.89,0002.53
2023-05-04 17:43:00,,0824.7,5.00,0.00,28.1,26.6,00.0,36.4,29.8,15.3,0000.0,0003.93,0010.12,0002.52
2023-05-04 17:44:00,,0824.7,4.99,0.00,28.1,26.6,00.0,36.4,29.8,15.1,0000.0,0004.02,0010.95,0002.54
2023-05-04 17:45:00,,0824.7,5.00,0.00,28.1,26.6,00.0,36.4,29.7,14.8,0000.0,0004.08,0011.19,0002.54
2023-05-04 17:46:00,,0824.6,5.00,0.00,28.1,26.6,00.0,36.4,29.7,14.8,0000.0,0004.12,0011.17,0002.57
2023-05-04 17:47:00,,0824.6,4.99,0.00,28.1,26.6,00.0,36.4,29.8,15.4,0000.0,0004.12,0011.15,0002.58
2023-05-04 17:48:00,,0824.6,5.00,0.00,28.1,26.6,00.0,36.4,29.7,15.4,0000.0,0004.10,0011.01,0002.60
2023-05-04 17:49:00,,0824.5,5.01,0.00,28.1,26.7,00.0,36.4,29.7,15.5,0000.0,0004.10,0010.91,0002.62
2023-05-04 17:50:00,,0824.5,5.00,0.00,28.1,26.7,00.0,36.4,29.7,15.5,0000.0,0004.10,0011.31,0002.62
2023-05-04 17:51:00,,0824.5,5.00,0.00,28.1,26.7,00.0,36.4,29.7,15.0,0000.0,0004.13,0011.88,0002.64
2023-05-04 17:52:00,,0824.5,4.99,0.00,28.1,26.8,00.0,36.4,29.7,15.0,0000.0,0004.15,0011.81,0002.63
2023-05-04 17:53:00,,0824.5,4.99,0.00,28.1,26.8,00.0,36.5,29.7,15.0,0000.0,0004.21,0012.07,0002.64
2023-05-04 17:54:00,,0824.5,4.99,0.00,28.2,26.8,00.0,36.5,29.8,14.7,0000.0,0004.29,0012.01,0002.67
2023-05-04 17:55:00,,0824.4,5.01,0.00,28.2,26.8,00.0,36.5,29.8,14.6,0000.0,0004.23,0011.18,0002.68
2023-05-04 17:56:00,,0824.4,5.01,0.00,28.2,26.8,00.0,36.5,29.8,14.5,0000.0,0004.21,0010.93,0002.70
2023-05-04 17:57:00,,0824.4,5.00,0.00,28.2,26.9,00.0,36.5,29.8,14.8,0000.0,0004.21,0010.96,0002.71
2023-05-04 17:58:00,,0824.4,5.00,0.00,28.2,26.9,00.0,36.5,29.8,14.7,0000.0,0004.25,0011.15,0002.72
2023-05-04 17:59:00,,0824.3,4.99,0.00,28.2,26.9,00.0,36.5,29.8,15.2,0000.0,0004.27,0011.26,0002.71
